Location: Erdweis
(48.5167°N, 15.3500°E)
Time: 00:06:27
(UTC+00:00)

NOSS 2-2 (C) - Pass Details

Date: 25 January 2021
Orbit: 463 x 1745 km, 63.3° (Epoch: 03 March)

Event Time Altitude Azimuth Distance (km) Brightness Sun altitude
Rises 19:38:50 0° 317° (NW) 3,124 7.9 -38.2°
Reaches altitude 10° 19:40:53 10° 315° (NW) 2,343 7.1 -38.5°
Enters shadow 19:42:57 26° 310° (NW) 1,629 6.1 -38.8°
